This demonstration page uses our WeatherBlox Daily Observations layout. Learn more.

Left ArrowRight Arrow

Hourly Observations for June 29, 2021

Temp ( °F °C ) Dew Point ( °F °C ) Humidity (%) Winds ( mph kmh ) Pressure ( in mb ) Visibility ( mi km ) Precip ( " mm )
12:53 am 00:53 Clear 81 27.2 59 15 47 47 Calm 29.67 1005 10 16 0.00 0.00
1:53 am 01:53 Clear 77 25 60 15.6 56 56 Calm 29.68 1005 10 16 0.00 0.00
2:53 am 02:53 Clear 77 25 57 13.9 50 50 Calm 29.69 1005 10 16 0.00 0.00
3:53 am 03:53 Clear 75 23.9 59 15 58 58 Calm 29.70 1006 10 16 0.00 0.00
4:53 am 04:53 Clear 73 22.8 57 13.9 57 57 Calm 29.70 1006 10 16 0.00 0.00
5:53 am 05:53 Sunny 72 22.2 56 13.3 57 57 Calm 29.71 1006 10 16 0.00 0.00
6:53 am 06:53 Sunny 75 23.9 55 12.8 50 50 Calm 29.72 1007 10 16 0.00 0.00
7:53 am 07:53 Sunny 79 26.1 57 13.9 47 47 S 5 7 29.72 1006 10 16 0.00 0.00
8:53 am 08:53 Sunny 82 27.8 57 13.9 42 42 S 5 7 29.72 1006 10 16 0.00 0.00
9:53 am 09:53 Sunny 87 30.6 57 13.9 36 36 Calm 29.71 1006 10 16 0.00 0.00
10:53 am 10:53 Sunny 92 33.3 56 13.3 30 30 VRB 3 6 29.70 1006 10 16 0.00 0.00
11:53 am 11:53 Sunny 96 35.6 56 13.3 26 26 VRB 6 9 29.69 1005 10 16 0.00 0.00
12:53 pm 12:53 Sunny 100 37.8 53 11.7 21 21 SW 3 6 29.68 1005 10 16 0.00 0.00
1:53 pm 13:53 Sunny 102 38.9 46 7.8 15 15 SSE 6 9 29.67 1005 10 16 0.00 0.00
2:53 pm 14:53 Sunny 105 40.6 44 6.7 13 13 SSE 10 17 29.65 1004 10 16 0.00 0.00
3:53 pm 15:53 Sunny 107 41.7 41 5 11 11 S 9 15 29.62 1003 10 16 0.00 0.00
4:53 pm 16:53 Sunny 107 41.7 38 3.3 9 9 S 10 17 29.60 1003 10 16 0.00 0.00
5:53 pm 17:53 Sunny 107 41.7 39 3.9 10 10 SSE 13 20 29.59 1002 10 16 0.00 0.00
6:53 pm 18:53 Sunny 105 40.6 43 6.1 12 12 S 13 20 29.60 1002 10 16 0.00 0.00
7:53 pm 19:53 Sunny 99 37.2 49 9.4 18 18 SSE 12 19 29.61 1003 10 16 0.00 0.00
8:53 pm 20:53 Clear 94 34.4 47 8.3 20 20 SSE 10 17 29.63 1003 10 16 0.00 0.00
9:53 pm 21:53 Clear 91 32.8 50 10 25 25 SSE 13 20 29.65 1004 10 16 0.00 0.00
10:53 pm 22:53 Clear 90 32.2 58 14.4 34 34 S 15 24 29.68 1005 10 16 0.00 0.00
11:53 pm 23:53 Clear 89 31.7 58 14.4 35 35 SSW 7 11 29.70 1006 10 16 0.00 0.00

Powered by AerisWeather